Regional Weather Roundup
Issued by NWS Little Rock, AR

Home | Current Version | Previous Version | Graphics & Text | Print | Product List | Glossary On
Versions: 1 2 3 4 5 6 7 8 9 10 11 12 13 14 15 16 17 18 19 20 21 22 23 24 25 26 27 28 29 30 31 32 33 34 35 36 37 38 39 40 41 42 43 44 45 46 47 48 49 50
000
ASUS44 KLZK 290005
RWRLZK

WEATHER ROUNDUP FOR ARKANSAS
NATIONAL WEATHER SERVICE LITTLE ROCK AR
700 PM CDT SAT MAR 28 2015

NOTE: "FAIR" INDICATES FEW OR NO CLOUDS BELOW 12,000 FEET WITH NO
SIGNIFICANT WEATHER AND/OR OBSTRUCTIONS TO VISIBILITY.

ARZ001-003-010-029-290100-
NORTHWEST ARKANSAS

CITY           SKY/WX    TMP DP  RH WIND       PRES   REMARKS
FAYETTEVILLE   CLEAR     55  41  59 S9        30.10R
6HR MIN TEMP:  54; 6HR MAX TEMP:  60;

FORT SMITH     CLEAR     53  40  61 E17       30.12R
6HR MIN TEMP:  53; 6HR MAX TEMP:  59;

HARRISON       CLEAR     43  32  65 E13       30.17R
6HR MIN TEMP:  42; 6HR MAX TEMP:  50;

BENTONVILLE    CLEAR     57  37  47 E8        30.10R
6HR MIN TEMP:  55; 6HR MAX TEMP:  63;

ROGERS         CLEAR     55  39  54 E10       30.11R
6HR MIN TEMP:  53; 6HR MAX TEMP:  61;

SILOAM SPGS    CLEAR     57  39  51 S10       30.10R
6HR MIN TEMP:  57; 6HR MAX TEMP:  63;

HIGHFILL       CLEAR     59  40  49 S15       30.09R
6HR MIN TEMP:  54; 6HR MAX TEMP:  62;

SPRINGDALE     CLEAR     57  39  51 SE8       30.12R
$$

ARZ004-005-016-290100-
NORTH CENTRAL ARKANSAS

CITY           SKY/WX    TMP DP  RH WIND       PRES   REMARKS
BATESVILLE     CLOUDY    37  32  81 E7        30.28S
6HR MIN TEMP:  34; 6HR MAX TEMP:  37; 6HR PCP:  0.03;

FLIPPIN        CLOUDY    39  28  65 E10G17    30.22S
6HR MIN TEMP:  39; 6HR MAX TEMP:  41;

MTN HOME       CLOUDY    37  32  82 E14       30.22R
6HR MIN TEMP:  36; 6HR MAX TEMP:  38;

$$

ARZ040-041-290100-
WEST CENTRAL ARKANSAS

CITY           SKY/WX    TMP DP  RH WIND       PRES   REMARKS
MENA           CLEAR     64  43  45 SE6       30.10R
MOUNT IDA      CLEAR     53  39  59 E7        30.13R
6HR MIN TEMP:  53; 6HR MAX TEMP:  62;

$$

ARZ009-017-025-026-028-290100-
NORTHEAST ARKANSAS

CITY           SKY/WX    TMP DP  RH WIND       PRES   REMARKS
CORNING          N/A     41  32  70 S6        30.30R
JONESBORO      CLOUDY    40  29  64 E5        30.29R
6HR MIN TEMP:  37; 6HR MAX TEMP:  40;

NEWPORT        CLOUDY    40  33  76 SE8       30.30S
6HR MIN TEMP:  35; 6HR MAX TEMP:  40; 6HR PCP:  0.01;

BLYTHEVILLE    MOCLDY    43  25  49 CALM      30.29R
6HR MIN TEMP:  42; 6HR MAX TEMP:  45;

$$

ARZ022-023-033-042-044-290100-
CENTRAL ARKANSAS

CITY           SKY/WX    TMP DP  RH WIND       PRES   REMARKS
LITTLE ROCK    PTCLDY    47  30  51 E12       30.25R
6HR MIN TEMP:  46; 6HR MAX TEMP:  51;

N LITTLE ROCK  PTCLDY    46  34  62 E10G16    30.25R
6HR MIN TEMP:  45; 6HR MAX TEMP:  50;

JACKSONVILLE   CLEAR     46  31  56 E7        30.25R
6HR MIN TEMP:  45; 6HR MAX TEMP:  49;

SEARCY         MOCLDY    40  34  79 NE8       30.30R
6HR MIN TEMP:  40; 6HR MAX TEMP:  46;

HOT SPRINGS    CLEAR     53  37  54 E9        30.18R
6HR MIN TEMP:  53; 6HR MAX TEMP:  58;

RUSSELLVILLE   CLEAR     50  34  54 E8G18     30.20R
6HR MIN TEMP:  43; 6HR MAX TEMP:  52;

CLINTON        FAIR      43  32  65 E8        30.26R
$$

ARZ036-290100-
EAST ARKANSAS

CITY           SKY/WX    TMP DP  RH WIND       PRES   REMARKS
WEST MEMPHIS   CLOUDY    42  30  62 S3        30.28R
6HR MIN TEMP:  39; 6HR MAX TEMP:  42; 6HR PCP: TRACE;

$$

ARZ050-053-066-070-073-290100-
SOUTHWEST ARKANSAS

CITY           SKY/WX    TMP DP  RH WIND       PRES   REMARKS
ARKADELPHIA    FAIR      55  41  59 E7        30.18R
6HR MIN TEMP:  55; 6HR MAX TEMP:  62;

CAMDEN         CLEAR     57  37  47 MISG      30.17R
TEXARKANA      CLEAR     67  47  48 E9        30.07R
6HR MIN TEMP:  62; 6HR MAX TEMP:  72;

EL DORADO      CLEAR     58  42  55 E14       30.14R
6HR MIN TEMP:  57; 6HR MAX TEMP:  68;

DE QUEEN       CLEAR     64  45  49 E12       30.07R
6HR MIN TEMP:  60; 6HR MAX TEMP:  68;

$$

ARZ056-057-069-290100-
SOUTHEAST ARKANSAS

CITY           SKY/WX    TMP DP  RH WIND       PRES   REMARKS
PINE BLUFF     CLEAR     48  33  56 E13       30.24R
6HR MIN TEMP:  47; 6HR MAX TEMP:  52;

STUTTGART      CLEAR     45  28  53 E10       30.27S
6HR MIN TEMP:  45; 6HR MAX TEMP:  48;

MONTICELLO     CLEAR     50  32  50 E14       30.22R
6HR MIN TEMP:  50; 6HR MAX TEMP:  55;


$$





USA.gov is the U.S. government's official web portal to all federal, state and local government web resources and services.